Nantucket Island, MA NWLON current weather conditions

sailwx.info

Wind from 336 at 7 knots gusting 13

Air temperature 3.3° C
Water temperature 4.4° C

Last reported at 2020-Jan-28 23:00 UTC.
Time now 2020-Jan-29 00:06 UTC

Location: N 41°17' W 070°06'.
View on Google Maps.

See reports from other nearby stations

  
Tides and Currents Weather Stations Pressure Air Temp Water Temp Dewpoint Dewpoint Depression Visibility Wind Speed Wind Dir Waves Ship Positions
date/time (UTC)wind fromknots sea level pressurealtimeterstation pressurevisibilityair tempwater tempwave heightnotes
2020-Jan-28 23:00 336 7 gusting 13 3.3 4.4
2020-Jan-28 22:48 335 7 gusting 10 3.3 4.4
2020-Jan-28 22:42 333 6 gusting 10 3.3 4.4
2020-Jan-28 22:36 332 8 gusting 9 3.3 4.4
2020-Jan-28 22:30 327 8 gusting 13 3.3 4.4
2020-Jan-28 22:24 332 8 gusting 13 3.3 4.4
2020-Jan-28 22:18 337 6 gusting 13 3.3 4.4
2020-Jan-28 22:12 339 6 gusting 12 3.3 4.4
2020-Jan-28 22:06 332 6 gusting 11 3.3 4.4
2020-Jan-28 22:00 343 6 gusting 10 3.3 4.4
2020-Jan-28 21:54 339 5 gusting 11 3.3 4.4
2020-Jan-28 21:48 338 6 gusting 10 3.3 4.4
2020-Jan-28 21:42 346 7 gusting 11 3.3 4.4
2020-Jan-28 21:36 345 5 gusting 11 3.3 4.4
2020-Jan-28 21:30 351 7 gusting 10 3.3 4.4
2020-Jan-28 21:24 351 7 gusting 10 3.3 4.4
2020-Jan-28 21:18 349 6 gusting 11 3.3 4.4
2020-Jan-28 21:12 349 7 gusting 12 3.3 4.4
2020-Jan-28 21:06 343 6 gusting 12 3.3 4.4
2020-Jan-28 21:00 344 7 gusting 12 3.3 4.4
2020-Jan-28 20:54 347 7 gusting 11 3.3 4.4
2020-Jan-28 20:48 352 8 gusting 13 3.3 4.4
2020-Jan-28 20:42 351 8 gusting 12 3.3 4.4
2020-Jan-28 20:36 351 8 gusting 11 3.3 4.4
2020-Jan-28 20:30 347 7 gusting 13 3.3 4.4
2020-Jan-28 20:24 344 9 gusting 12 3.3 4.4
2020-Jan-28 20:18 346 8 gusting 13 3.3 4.4
2020-Jan-28 20:12 347 7 gusting 11 3.3 4.4
2020-Jan-28 20:06 346 8 gusting 12 3.3 4.4
2020-Jan-28 20:00 350 6 gusting 12 3.3 4.4
2020-Jan-28 19:54 344 7 gusting 12 3.3 4.4
2020-Jan-28 19:48 354 9 gusting 12 3.3 4.4
2020-Jan-28 19:42 347 6 gusting 13 3.3 4.4
2020-Jan-28 19:36 348 6 gusting 11 3.3 4.4
2020-Jan-28 19:30 350 8 gusting 13 3.3 4.4
2020-Jan-28 19:24 346 7 gusting 12 3.3 4.4
2020-Jan-28 19:18 350 8 gusting 12 3.3 4.4
2020-Jan-28 19:12 347 8 gusting 13 3.3 4.4
2020-Jan-28 19:06 351 8 gusting 13 3.3 4.4
2020-Jan-28 19:00 345 10 gusting 14 3.3 4.4
2020-Jan-28 18:54 352 8 gusting 15 3.9 4.4
2020-Jan-28 18:48 350 7 gusting 14 3.9 4.4
2020-Jan-28 18:42 346 8 gusting 13 3.9 4.4
2020-Jan-28 18:36 347 8 gusting 12 3.9 4.4
2020-Jan-28 18:30 343 7 gusting 13 3.9 4.4
2020-Jan-28 18:24 347 10 gusting 14 3.9 4.4
2020-Jan-28 18:18 344 8 gusting 13 3.9 4.4
2020-Jan-28 18:12 345 7 gusting 12 3.9 4.4
2020-Jan-28 18:06 341 11 gusting 13 3.9 3.9
2020-Jan-28 18:00 344 8 gusting 14 3.9 3.9
2020-Jan-28 17:54 340 8 gusting 13 3.9 3.9
2020-Jan-28 17:48 340 11 gusting 13 3.9 3.9
2020-Jan-28 17:42 343 9 gusting 15 3.9 3.9
2020-Jan-28 17:36 345 8 gusting 14 3.9 3.9
2020-Jan-28 17:30 345 7 gusting 13 4.4 3.9
2020-Jan-28 17:24 344 10 gusting 14 3.9 3.9
2020-Jan-28 17:18 350 10 gusting 14 3.9 3.9
2020-Jan-28 17:12 347 11 gusting 13 3.9 3.9
2020-Jan-28 17:06 351 11 gusting 16 4.4 3.9
2020-Jan-28 17:00 351 9 gusting 13 4.4 3.9
2020-Jan-28 16:54 349 8 gusting 13 4.4 3.9
2020-Jan-28 16:48 352 9 gusting 13 4.4 3.9
2020-Jan-28 16:42 351 9 gusting 15 4.4 3.9
2020-Jan-28 16:36 345 8 gusting 13 4.4 3.9
2020-Jan-28 16:30 344 8 gusting 12 4.4 3.9
2020-Jan-28 16:24 345 6 gusting 12 4.4 3.9
2020-Jan-28 16:18 347 8 gusting 12 4.4 3.9
2020-Jan-28 16:12 340 7 gusting 13 4.4 3.9
2020-Jan-28 16:06 346 8 gusting 13 4.4 3.9
2020-Jan-28 16:00 347 9 gusting 13 4.4 3.9
2020-Jan-28 15:54 349 8 gusting 15 4.4 3.9
2020-Jan-28 15:48 344 10 gusting 13 4.4 3.9
2020-Jan-28 15:42 343 10 gusting 15 4.4 3.9
2020-Jan-28 15:36 340 8 gusting 13 4.4 3.9
2020-Jan-28 15:30 337 8 gusting 13 4.4 3.9
2020-Jan-28 15:24 345 9 gusting 14 4.4 3.9
2020-Jan-28 15:18 344 6 gusting 13 4.4 3.9
2020-Jan-28 15:12 344 10 gusting 14 4.4 3.9
2020-Jan-28 15:06 340 9 gusting 14 4.4 3.9
2020-Jan-28 15:00 334 9 gusting 14 4.4 3.9
2020-Jan-28 14:54 336 7 gusting 13 4.4 3.9
2020-Jan-28 14:48 334 7 gusting 12 3.9 3.9
2020-Jan-28 14:42 331 9 gusting 12 3.9 3.9
2020-Jan-28 14:36 334 6 gusting 13 3.9 3.9
2020-Jan-28 14:30 331 8 gusting 11 3.9 3.9
2020-Jan-28 14:24 333 8 gusting 13 3.9 3.9
2020-Jan-28 14:18 331 10 gusting 13 3.9 3.9
2020-Jan-28 14:12 329 7 gusting 13 3.9 3.9
2020-Jan-28 14:06 332 9 gusting 13 3.3 3.9
2020-Jan-28 14:00 328 9 gusting 13 3.3 3.9
2020-Jan-28 13:54 321 9 gusting 13 3.3 3.9
2020-Jan-28 13:48 328 7 gusting 13 3.3 3.9
2020-Jan-28 13:42 329 8 gusting 13 3.3 3.9
2020-Jan-28 13:36 324 7 gusting 12 3.3 3.9
2020-Jan-28 13:30 321 9 gusting 13 3.3 3.9
2020-Jan-28 13:24 328 8 gusting 13 3.3 3.9
2020-Jan-28 13:18 326 7 gusting 14 3.3 3.9
2020-Jan-28 13:12 323 6 gusting 13 3.3 3.9
2020-Jan-28 13:06 324 6 gusting 10 3.3 3.9
2020-Jan-28 13:00 320 6 gusting 10 3.3 3.9
2020-Jan-28 12:54 321 6 gusting 11 3.3 3.9
2020-Jan-28 12:48 315 6 gusting 10 3.3 3.9
2020-Jan-28 12:42 317 5 gusting 10 3.3 3.9
2020-Jan-28 12:36 322 6 gusting 9 3.3 3.9
2020-Jan-28 12:30 311 5 gusting 12 3.3 3.9
2020-Jan-28 12:24 316 6 gusting 11 3.3 3.9
2020-Jan-28 12:18 316 6 gusting 11 3.3 3.9
2020-Jan-28 12:12 313 5 gusting 10 3.3 3.9
2020-Jan-28 12:06 319 6 gusting 10 3.3 3.9
2020-Jan-28 12:00 313 6 gusting 10 3.3 3.9
2020-Jan-28 11:54 309 6 gusting 10 3.3 3.9
2020-Jan-28 11:48 310 7 gusting 10 3.3 3.9
2020-Jan-28 11:42 313 7 gusting 10 3.3 3.9
2020-Jan-28 11:36 310 5 gusting 11 3.3 3.9
2020-Jan-28 11:30 298 6 gusting 10 3.3 3.9
2020-Jan-28 11:24 299 6 gusting 7 3.3 3.9
2020-Jan-28 11:18 300 6 gusting 11 3.3 3.9
2020-Jan-28 11:12 298 6 gusting 12 3.3 3.9
2020-Jan-28 11:06 299 7 gusting 10 3.3 3.9
2020-Jan-28 11:00 300 6 gusting 11 3.3 3.9
2020-Jan-28 10:54 294 6 gusting 13 3.3 3.9
2020-Jan-28 10:48 293 7 gusting 13 3.3 3.9
2020-Jan-28 10:42 300 7 gusting 11 3.3 3.9
2020-Jan-28 10:36 303 6 gusting 10 3.3 3.9
2020-Jan-28 10:30 300 7 gusting 12 3.3 3.9
2020-Jan-28 10:24 303 7 gusting 11 3.3 3.9
2020-Jan-28 10:18 301 7 gusting 12 3.3 3.9
2020-Jan-28 10:12 305 6 gusting 11 3.3 3.9
2020-Jan-28 10:06 298 7 gusting 11 3.3 3.9
2020-Jan-28 10:00 298 6 gusting 10 3.3 3.9
2020-Jan-28 09:54 308 6 gusting 11 3.3 3.9
2020-Jan-28 09:48 296 5 gusting 10 3.3 3.9
2020-Jan-28 09:42 295 6 gusting 13 3.9 3.9
2020-Jan-28 09:36 303 7 gusting 11 3.9 3.9
2020-Jan-28 09:30 307 6 gusting 12 3.9 3.9
2020-Jan-28 09:24 303 6 gusting 10 3.9 3.9
2020-Jan-28 09:18 303 7 gusting 12 3.9 3.9
2020-Jan-28 09:12 303 6 gusting 9 3.9 3.9
2020-Jan-28 09:06 305 6 gusting 11 3.9 3.9
2020-Jan-28 09:00 303 7 gusting 10 3.9 3.9
2020-Jan-28 08:54 302 6 gusting 12 3.9 3.9
2020-Jan-28 08:48 295 7 gusting 11 3.9 3.9
2020-Jan-28 08:42 296 5 gusting 12 3.9 3.9
2020-Jan-28 08:36 296 6 gusting 11 3.9 3.9
2020-Jan-28 08:30 299 6 gusting 12 3.9 3.9
2020-Jan-28 08:24 298 6 gusting 11 3.9 3.9
2020-Jan-28 08:18 304 6 gusting 11 3.9 3.9
2020-Jan-28 08:12 299 6 gusting 9 3.9 3.9
2020-Jan-28 08:06 296 7 gusting 11 3.9 3.9
2020-Jan-28 08:00 300 7 gusting 11 3.9 3.9
2020-Jan-28 07:54 294 6 gusting 12 3.9 3.9
2020-Jan-28 07:48 300 6 gusting 13 3.9 3.9
2020-Jan-28 07:42 304 7 gusting 11 3.9 3.9
2020-Jan-28 07:36 307 6 gusting 9 3.9 3.9
2020-Jan-28 07:30 305 7 gusting 11 3.9 3.9
2020-Jan-28 07:24 312 6 gusting 13 3.9 3.9
2020-Jan-28 07:18 307 7 gusting 12 3.9 3.9
2020-Jan-28 07:12 307 6 gusting 11 3.9 3.9
2020-Jan-28 07:06 303 5 gusting 12 3.9 3.9
2020-Jan-28 07:00 301 6 gusting 10 3.9 3.9
2020-Jan-28 06:54 303 6 gusting 13 3.9 3.9
2020-Jan-28 06:48 304 8 gusting 13 3.9 3.9
2020-Jan-28 06:42 302 6 gusting 13 3.9 3.9
2020-Jan-28 06:36 299 8 gusting 12 4.4 3.9
2020-Jan-28 06:30 297 7 gusting 13 4.4 3.9
2020-Jan-28 06:24 296 6 gusting 11 4.4 3.9
2020-Jan-28 06:18 296 7 gusting 11 4.4 3.9
2020-Jan-28 06:12 297 6 gusting 11 4.4 3.9
2020-Jan-28 06:06 297 6 gusting 11 4.4 3.9
2020-Jan-28 06:00 300 5 gusting 11 4.4 3.9
2020-Jan-28 05:54 299 6 gusting 11 4.4 3.9
2020-Jan-28 05:48 304 5 gusting 13 4.4 3.9
2020-Jan-28 05:42 300 6 gusting 9 4.4 3.9
2020-Jan-28 05:36 294 5 gusting 11 4.4 3.9
2020-Jan-28 05:30 294 7 gusting 10 4.4 3.9
2020-Jan-28 05:24 295 6 gusting 12 4.4 3.9
2020-Jan-28 05:18 290 5 gusting 12 4.4 3.9
2020-Jan-28 05:12 295 6 gusting 11 4.4 3.9
2020-Jan-28 05:06 289 5 gusting 9 4.4 3.9
2020-Jan-28 05:00 292 5 gusting 8 3.9 3.9
2020-Jan-28 04:54 293 5 gusting 9 3.9 3.9
2020-Jan-28 04:48 293 4 gusting 7 3.9 3.9
2020-Jan-28 04:42 280 4 gusting 6 3.9 3.9
2020-Jan-28 04:36 278 3 gusting 7 3.9 3.9
2020-Jan-28 04:30 283 3 gusting 5 3.9 3.9
2020-Jan-28 04:24 278 3 gusting 6 3.9 3.9
2020-Jan-28 04:18 280 6 gusting 7 3.9 3.9
2020-Jan-28 04:12 280 6 gusting 10 3.9 3.9
2020-Jan-28 04:06 287 6 gusting 11 4.4 3.9
2020-Jan-28 04:00 287 6 gusting 10 4.4 3.9
2020-Jan-28 03:54 293 6 gusting 10 3.9 3.9
2020-Jan-28 03:48 292 4 gusting 9 3.9 3.9
2020-Jan-28 03:42 283 4 gusting 6 3.9 3.9
2020-Jan-28 03:36 277 3 gusting 8 3.9 3.9
2020-Jan-28 03:30 283 3 gusting 7 3.9 3.9
2020-Jan-28 03:24 277 5 gusting 8 3.9 3.9
2020-Jan-28 03:18 280 5 gusting 7 3.9 3.9
2020-Jan-28 03:12 277 4 gusting 6 3.9 3.9
2020-Jan-28 03:06 270 4 gusting 6 3.9 3.9
2020-Jan-28 03:00 274 3 gusting 7 3.9 3.9
2020-Jan-28 02:54 268 5 gusting 7 3.9 3.9
2020-Jan-28 02:48 273 5 gusting 7 3.9 3.9
2020-Jan-28 02:42 274 5 gusting 9 3.9 3.9
2020-Jan-28 02:36 271 4 gusting 9 3.9 3.9
2020-Jan-28 02:30 274 3 gusting 7 3.9 3.9
2020-Jan-28 02:24 276 4 gusting 6 3.9 3.9
2020-Jan-28 02:18 275 4 gusting 7 3.9 3.9
2020-Jan-28 02:12 276 5 gusting 8 3.9 3.9
2020-Jan-28 02:06 276 3 gusting 10 3.9 3.9
2020-Jan-28 02:00 276 4 gusting 6 3.9 3.9
2020-Jan-28 01:54 276 4 gusting 7 3.9 3.9
2020-Jan-28 01:48 272 5 gusting 6 3.9 3.9
2020-Jan-28 01:42 276 5 gusting 8 4.4 3.9
2020-Jan-28 01:36 271 4 gusting 9 4.4 3.9
2020-Jan-28 01:30 274 6 gusting 8 4.4 3.9
2020-Jan-28 01:24 277 6 gusting 9 4.4 3.9
2020-Jan-28 01:18 272 5 gusting 9 4.4 3.9
2020-Jan-28 01:12 279 6 gusting 8 5.0 3.9
2020-Jan-28 01:06 277 5 gusting 9 5.0 3.9
2020-Jan-28 01:00 277 5 gusting 10 5.0 3.9
2020-Jan-28 00:54 275 6 gusting 10 5.0 4.4
2020-Jan-28 00:48 278 5 gusting 11 5.0 4.4
2020-Jan-28 00:42 277 5 gusting 10 5.0 4.4
2020-Jan-28 00:36 277 5 gusting 10 5.0 4.4
2020-Jan-28 00:30 274 3 gusting 10 5.0 4.4
2020-Jan-28 00:24 270 5 gusting 11 5.0 4.4
2020-Jan-28 00:18 277 6 gusting 10 5.0 4.4
2020-Jan-28 00:12 276 5 gusting 11 5.0 4.4
2020-Jan-28 00:06 268 6 gusting 10 5.0 4.4
2020-Jan-28 00:00 277 5 gusting 10 5.0 4.4
2020-Jan-27 23:48 262 4 gusting 8 5.0 4.4
2020-Jan-27 23:42 267 5 gusting 8 5.0 4.4
2020-Jan-27 23:36 269 5 gusting 10 5.0 4.4
2020-Jan-27 23:30 257 5 gusting 10 5.0 4.4
2020-Jan-27 23:24 251 3 gusting 9 5.0 4.4
2020-Jan-27 23:18 263 5 gusting 8 5.0 4.4
2020-Jan-27 23:12 262 6 gusting 10 5.0 4.4
2020-Jan-27 23:06 256 6 gusting 10 5.0 3.9
2020-Jan-27 23:00 259 6 gusting 11 5.0 3.9
2020-Jan-27 22:54 261 6 gusting 11 5.0 3.9
2020-Jan-27 22:48 268 7 gusting 9 5.0 3.9
2020-Jan-27 22:42 268 7 gusting 13 5.0 3.9
2020-Jan-27 22:36 271 7 gusting 11 5.0 3.9
2020-Jan-27 22:30 266 7 gusting 12 5.0 3.9
2020-Jan-27 22:24 265 6 gusting 13 4.4 3.9
2020-Jan-27 22:18 248 5 gusting 12 4.4 3.9
2020-Jan-27 22:12 255 5 gusting 9 4.4 3.9
2020-Jan-27 22:06 252 4 gusting 6 4.4 3.9
2020-Jan-27 22:00 252 4 gusting 7 4.4 3.9
2020-Jan-27 21:54 250 5 gusting 7 4.4 3.9
2020-Jan-27 21:48 253 7 gusting 10 4.4 3.9
2020-Jan-27 21:42 251 6 gusting 14 4.4 3.9
2020-Jan-27 21:36 255 6 gusting 9 4.4 3.9
2020-Jan-27 21:30 253 6 gusting 11 4.4 3.9
2020-Jan-27 21:24 254 5 gusting 13 5.0 3.9
2020-Jan-27 21:18 258 6 gusting 9 5.0 3.9
2020-Jan-27 21:12 250 8 gusting 11 5.0 3.9
2020-Jan-27 21:06 258 5 gusting 13 5.0 3.9
2020-Jan-27 21:00 257 6 gusting 10 5.0 3.9
2020-Jan-27 20:54 253 6 gusting 11 5.6 3.9
2020-Jan-27 20:48 251 8 gusting 12 5.6 3.9
2020-Jan-27 20:42 262 6 gusting 13 5.6 3.9
2020-Jan-27 20:36 255 6 gusting 13 5.6 3.9
2020-Jan-27 20:30 260 6 gusting 10 5.6 3.9
2020-Jan-27 20:24 255 5 gusting 14 5.6 3.9
2020-Jan-27 20:18 260 10 gusting 15 5.6 3.9
2020-Jan-27 20:12 268 10 gusting 15 5.6 3.9
2020-Jan-27 20:06 268 6 gusting 16 5.6 3.9
2020-Jan-27 20:00 260 6 gusting 13 5.6 3.9
2020-Jan-27 19:54 249 8 gusting 14 5.6 3.9
2020-Jan-27 19:48 252 9 gusting 17 5.6 3.9
2020-Jan-27 19:42 267 6 gusting 16 5.6 3.9
2020-Jan-27 19:36 269 9 gusting 13 5.6 3.9
2020-Jan-27 19:30 257 11 gusting 18 5.6 3.9
2020-Jan-27 19:24 260 11 gusting 17 5.6 3.9
2020-Jan-27 19:18 261 7 gusting 16 5.6 3.9
2020-Jan-27 19:12 261 12 gusting 16 5.6 3.9
2020-Jan-27 19:06 257 9 gusting 18 5.6 3.9
2020-Jan-27 19:00 277 8 gusting 16 5.6 3.9
2020-Jan-27 18:54 265 12 gusting 19 5.6 3.9
2020-Jan-27 18:48 267 11 gusting 19 5.6 3.9
2020-Jan-27 18:42 257 10 gusting 17 5.6 3.9
2020-Jan-27 18:36 269 11 gusting 19 5.6 3.9
2020-Jan-27 18:30 270 11 gusting 17 5.6 3.9
2020-Jan-27 18:24 267 10 gusting 20 5.6 3.9
2020-Jan-27 18:18 268 10 gusting 15 5.6 3.9
2020-Jan-27 18:12 273 8 gusting 17 5.6 3.9
2020-Jan-27 18:06 252 9 gusting 19 5.6 3.9
2020-Jan-27 18:00 266 11 gusting 18 5.6 3.9
2020-Jan-27 17:54 259 8 gusting 16 5.6 3.9
2020-Jan-27 17:48 253 8 gusting 17 5.6 3.9
2020-Jan-27 17:42 265 10 gusting 18 5.6 3.9
2020-Jan-27 17:36 259 9 gusting 17 5.6 3.9
2020-Jan-27 17:30 269 6 gusting 16 5.6 3.9
2020-Jan-27 17:24 248 11 gusting 18 5.6 3.9
2020-Jan-27 17:18 258 11 gusting 19 5.6 3.9
2020-Jan-27 17:12 254 6 gusting 16 5.6 3.9
2020-Jan-27 17:06 246 9 gusting 16 5.6 3.9
2020-Jan-27 17:00 249 10 gusting 14 5.6 3.9
2020-Jan-27 16:54 263 7 gusting 16 5.0 3.9
2020-Jan-27 16:48 260 9 gusting 18 5.0 3.9
2020-Jan-27 16:42 254 6 gusting 15 5.0 3.9
2020-Jan-27 16:36 246 9 gusting 16 5.6 3.9
2020-Jan-27 16:30 248 12 gusting 14 5.0 3.9
2020-Jan-27 16:24 245 10 gusting 18 5.6 3.9
2020-Jan-27 16:18 257 11 gusting 17 5.6 3.9
2020-Jan-27 16:12 259 9 gusting 18 5.6 3.9
2020-Jan-27 16:06 265 10 gusting 17 5.6 3.9
2020-Jan-27 16:00 258 9 gusting 16 5.6 3.9
2020-Jan-27 15:54 251 8 gusting 17 5.6 3.9
2020-Jan-27 15:48 256 12 gusting 17 5.6 3.9
2020-Jan-27 15:42 241 12 gusting 17 5.6 3.9
2020-Jan-27 15:36 247 10 gusting 19 5.6 3.9
2020-Jan-27 15:30 258 6 gusting 16 5.6 3.9
2020-Jan-27 15:24 256 10 gusting 13 5.6 3.9
2020-Jan-27 15:18 244 11 gusting 16 5.6 3.9
2020-Jan-27 15:12 266 6 gusting 16 5.6 3.9
2020-Jan-27 15:06 260 7 gusting 16 5.6 3.9
2020-Jan-27 15:00 259 6 gusting 13 5.6 3.9
2020-Jan-27 14:54 247 6 gusting 13 5.6 3.9
2020-Jan-27 14:48 253 6 gusting 14 5.6 3.9
2020-Jan-27 14:42 260 6 gusting 13 5.6 3.9
2020-Jan-27 14:36 249 9 gusting 14 5.0 3.9
2020-Jan-27 14:30 254 8 gusting 17 5.6 3.9
2020-Jan-27 14:24 238 8 gusting 16 5.0 3.9
2020-Jan-27 14:18 245 6 gusting 12 5.6 3.9
2020-Jan-27 14:12 251 11 gusting 13 5.0 3.9
2020-Jan-27 14:06 249 8 gusting 14 5.0 3.9
2020-Jan-27 14:00 247 6 gusting 13 5.0 3.9
2020-Jan-27 13:54 242 7 gusting 13 5.0 3.9
2020-Jan-27 13:48 256 8 gusting 12 5.0 3.9
2020-Jan-27 13:42 243 6 gusting 11 5.0 3.9
2020-Jan-27 13:36 247 5 gusting 10 5.0 3.9
2020-Jan-27 13:30 240 6 gusting 9 4.4 3.9
2020-Jan-27 13:24 252 5 gusting 9 4.4 3.9
2020-Jan-27 13:18 254 5 gusting 12 4.4 3.9
2020-Jan-27 13:12 261 5 gusting 9 4.4 3.9
2020-Jan-27 13:06 249 6 gusting 8 4.4 3.9
2020-Jan-27 13:00 253 5 gusting 10 4.4 3.9
2020-Jan-27 12:54 250 6 gusting 9 4.4 3.9
2020-Jan-27 12:48 259 3 gusting 8 3.9 3.9
2020-Jan-27 12:42 251 4 gusting 7 3.9 3.9
2020-Jan-27 12:36 254 5 gusting 9 3.3 3.9
2020-Jan-27 12:30 250 3 gusting 8 3.3 3.9
2020-Jan-27 12:24 249 5 gusting 7 3.3 3.9
2020-Jan-27 12:18 253 5 gusting 7 3.3 3.9
2020-Jan-27 12:12 249 4 gusting 8 3.3 3.9
2020-Jan-27 12:06 255 4 gusting 6 3.3 3.9
2020-Jan-27 12:00 250 2 gusting 6 3.3 3.9
2020-Jan-27 11:54 245 3 gusting 5 3.3 3.9
2020-Jan-27 11:48 251 4 gusting 6 3.3 3.9
2020-Jan-27 11:42 247 5 gusting 7 3.3 3.9
2020-Jan-27 11:36 247 4 gusting 7 3.3 3.9
2020-Jan-27 11:30 239 3 gusting 6 2.8 3.9
2020-Jan-27 11:24 241 3 gusting 6 2.8 3.9
2020-Jan-27 11:18 248 4 gusting 5 2.8 3.9
2020-Jan-27 11:12 246 3 gusting 6 3.3 3.9
2020-Jan-27 11:06 252 3 gusting 6 3.3 3.9
2020-Jan-27 11:00 245 3 gusting 6 3.3 3.9
2020-Jan-27 10:54 250 4 gusting 6 3.3 3.9
2020-Jan-27 10:48 242 3 gusting 6 3.3 3.9
2020-Jan-27 10:42 245 2 gusting 5 2.8 3.9
2020-Jan-27 10:36 247 2 gusting 5 2.8 3.9
2020-Jan-27 10:30 247 3 gusting 6 2.8 3.9
2020-Jan-27 10:24 249 2 gusting 6 2.8 3.9
2020-Jan-27 10:18 246 3 gusting 6 2.8 3.9
2020-Jan-27 10:12 243 2 gusting 5 2.8 3.9
2020-Jan-27 10:06 247 2 gusting 3 3.3 3.9
2020-Jan-27 10:00 249 3 gusting 5 3.3 3.9
2020-Jan-27 09:54 249 5 gusting 6 3.3 3.9
2020-Jan-27 09:48 237 2 gusting 6 3.3 3.9
2020-Jan-27 09:42 253 4 gusting 6 3.3 3.9
2020-Jan-27 09:36 247 4 gusting 7 3.3 3.9
2020-Jan-27 09:30 249 5 gusting 8 3.3 3.9
2020-Jan-27 09:24 243 4 gusting 7 3.3 3.9
2020-Jan-27 09:18 246 3 gusting 6 3.3 3.9
2020-Jan-27 09:12 253 4 gusting 7 3.3 3.9
2020-Jan-27 09:06 259 3 gusting 6 3.3 3.9
2020-Jan-27 09:00 253 5 gusting 8 3.3 3.9
2020-Jan-27 08:54 250 3 gusting 8 3.3 3.9
2020-Jan-27 08:48 251 4 gusting 6 3.3 3.9
2020-Jan-27 08:42 256 2 gusting 7 3.3 3.9
2020-Jan-27 08:36 253 4 gusting 6 3.3 3.9
2020-Jan-27 08:30 237 3 gusting 6 3.3 3.9
2020-Jan-27 08:24 248 3 gusting 5 3.3 3.9
2020-Jan-27 08:18 249 2 gusting 5 3.3 3.9
2020-Jan-27 08:12 259 2 gusting 4 3.3 3.9
2020-Jan-27 08:06 258 2 gusting 6 3.3 3.9
2020-Jan-27 08:00 261 2 gusting 5 3.3 3.9
2020-Jan-27 07:54 267 2 gusting 4 3.3 3.9
2020-Jan-27 07:48 278 1 gusting 5 3.3 3.9
2020-Jan-27 07:42 243 1 gusting 3 3.3 3.9
2020-Jan-27 07:36 305 1 gusting 2 3.3 3.9
2020-Jan-27 07:30 245 2 gusting 4 3.3 3.9
2020-Jan-27 07:24 256 2 gusting 5 3.3 3.9
2020-Jan-27 07:18 262 3 gusting 4 3.9 3.9
2020-Jan-27 07:12 252 2 gusting 6 3.9 3.9
2020-Jan-27 07:06 256 3 gusting 6 3.9 3.9
2020-Jan-27 07:00 263 3 gusting 6 3.9 3.9
2020-Jan-27 06:54 257 2 gusting 5 3.9 3.9
2020-Jan-27 06:48 277 3 gusting 5 3.9 3.9
2020-Jan-27 06:42 272 4 gusting 7 3.9 3.9
2020-Jan-27 06:36 273 3 gusting 6 3.9 3.9
2020-Jan-27 06:30 257 4 gusting 7 3.9 3.9
2020-Jan-27 06:24 258 4 gusting 7 4.4 3.9
2020-Jan-27 06:18 261 5 gusting 6 4.4 3.9
2020-Jan-27 06:12 255 5 gusting 9 4.4 3.9
2020-Jan-27 06:06 263 4 gusting 6 4.4 3.9
2020-Jan-27 06:00 269 6 gusting 9 3.9 3.9
2020-Jan-27 05:54 262 4 gusting 8 3.9 3.9
2020-Jan-27 05:48 264 4 gusting 7 3.9 3.9
2020-Jan-27 05:42 264 4 gusting 6 3.9 3.9
2020-Jan-27 05:36 273 4 gusting 7 3.9 3.9
2020-Jan-27 05:30 273 4 gusting 9 3.9 3.9
2020-Jan-27 05:24 274 6 gusting 8 3.9 3.9
2020-Jan-27 05:18 272 4 gusting 7 3.9 3.9
2020-Jan-27 05:12 276 5 gusting 9 3.9 3.9
2020-Jan-27 05:06 274 5 gusting 10 3.9 3.9
2020-Jan-27 05:00 282 5 gusting 9 3.9 3.9
2020-Jan-27 04:54 273 5 gusting 8 3.9 3.9
2020-Jan-27 04:48 269 3 gusting 6 3.9 3.9
2020-Jan-27 04:42 259 3 gusting 7 3.9 3.9
2020-Jan-27 04:36 262 4 gusting 6 3.9 3.9
2020-Jan-27 04:30 262 3 gusting 6 3.9 3.9
2020-Jan-27 04:24 261 3 gusting 6 3.9 3.9
2020-Jan-27 04:18 264 4 gusting 8 4.4 3.9
2020-Jan-27 04:12 263 5 gusting 8 4.4 3.9
2020-Jan-27 04:06 271 5 gusting 8 4.4 3.9
2020-Jan-27 04:00 276 5 gusting 8 4.4 3.9
2020-Jan-27 03:54 269 5 gusting 9 4.4 3.9
2020-Jan-27 03:48 276 6 gusting 10 4.4 3.9
2020-Jan-27 03:42 270 4 gusting 9 4.4 3.9
2020-Jan-27 03:36 260 5 gusting 12 4.4 3.9
2020-Jan-27 03:30 262 6 gusting 11 3.9 3.9
2020-Jan-27 03:24 255 4 gusting 11 3.9 3.9
2020-Jan-27 03:18 261 3 gusting 6 4.4 3.9
2020-Jan-27 03:12 260 4 gusting 9 4.4 3.9
2020-Jan-27 03:06 266 4 gusting 9 4.4 3.9
2020-Jan-27 03:00 265 5 gusting 9 4.4 3.9
2020-Jan-27 02:54 259 5 gusting 9 4.4 3.9
2020-Jan-27 02:48 252 5 gusting 8 3.9 3.9
2020-Jan-27 02:42 262 3 gusting 7 3.9 3.9
2020-Jan-27 02:36 265 2 gusting 6 3.3 3.9
2020-Jan-27 02:30 246 2 gusting 5 3.3 3.9
2020-Jan-27 02:24 237 2 gusting 5 3.3 3.9
2020-Jan-27 02:18 237 2 gusting 4 3.9 3.9
2020-Jan-27 02:12 249 3 gusting 5 3.9 3.9
2020-Jan-27 02:06 242 3 gusting 5 3.9 3.9
2020-Jan-27 02:00 247 4 gusting 6 3.9 3.9
2020-Jan-27 01:54 251 3 gusting 6 3.9 3.9
2020-Jan-27 01:48 254 3 gusting 5 3.9 3.9
2020-Jan-27 01:42 256 4 gusting 6 3.9 3.9
2020-Jan-27 01:36 244 3 gusting 6 3.9 3.9
2020-Jan-27 01:30 251 3 gusting 5 4.4 3.9
2020-Jan-27 01:24 249 4 gusting 6 4.4 3.9
2020-Jan-27 01:18 247 4 gusting 7 4.4 3.9
2020-Jan-27 01:12 252 5 gusting 7 4.4 3.9
2020-Jan-27 01:06 252 3 gusting 6 4.4 3.9
2020-Jan-27 01:00 261 6 gusting 8 4.4 3.9
2020-Jan-27 00:54 259 3 gusting 6 4.4 3.9
2020-Jan-27 00:48 259 4 gusting 7 4.4 3.9
2020-Jan-27 00:42 261 4 gusting 7 4.4 3.9
2020-Jan-27 00:36 261 6 gusting 11 5.0 3.9
2020-Jan-27 00:30 267 4 gusting 9 5.0 3.9
2020-Jan-27 00:24 264 6 gusting 11 5.0 3.9
2020-Jan-27 00:18 252 6 gusting 9 5.0 3.9
2020-Jan-27 00:12 250 4 gusting 10 5.0 3.9
2020-Jan-27 00:06 256 6 gusting 9 5.0 3.9
2020-Jan-27 00:00 251 6 gusting 11 5.0 4.4